Location: Jalan Sepang
(2.8072°N, 101.8021°E)
Time: 05:37:56
(UTC+00:00)

Meteor 2-5 Rocket - Pass Details

Date: 15 May 2026
Orbit: 833 x 910 km, 81.2° (Epoch: 7 June)

Event Time Altitude Azimuth Distance (km) Brightness Sun altitude
Exits shadow 21:08:27 84° 214° (SW) 840 3.5 -27.3°
Maximum altitude 21:08:37 87° 273° (W) 838 3.5 -27.3°
Drops below altitude 10° 21:14:07 10° 4° (N) 2,431 6.4 -26.0°
Sets 21:16:31 0° 5° (N) 3,365 7.2 -25.5°
